Weather History for Kremmling, CO

Change the Weather History Date:

Saturday, May 25, 2013

  Actual Average (KEGE) Record (KEGE)
Temperature  
Mean Temperature 54 °F -  
Max Temperature 77 °F 72 °F 86 °F (1964)
Min Temperature 32 °F 35 °F 23 °F (1960)
Degree Days  
Heating Degree Days 10    
Growing Degree Days 4 (Base 50)    
Moisture  
Dew Point 16 °F    
Average Humidity 34    
Maximum Humidity 87    
Minimum Humidity 4    
Precipitation  
Precipitation 0.00 in - - ()
Sea Level Pressure  
Sea Level Pressure 30.14 in    
Wind  
Wind Speed 4 mph (WSW)    
Max Wind Speed 22 mph    
Max Gust Speed 30 mph    
Visibility 10 miles    
Events      
Averages and records for this station are not official NWS values.
T = Trace of Precipitation, MM = Missing Value Source: NWS Daily Summary

Daily Weather History Graph

Daily Weather History Graph

Search for Another Location

Airport:

Trip Planner

Search our weather history database for the weather conditions in past years. The results will help you decide how hot, cold, wet, or windy it might be!

Date:

Astronomy

May. 25, 2013 Rise Set
Actual Time 5:42 AM MDT 8:23 PM MDT
Civil Twilight 5:10 AM MDT 8:55 PM MDT
Nautical Twilight 4:30 AM MDT 9:34 PM MDT
Astronomical Twilight 3:46 AM MDT 10:19 PM MDT
Moon 9:14 PM MDT (5/25) 6:11 AM MDT (5/25)
Length of Visible Light 15h 44m
Length of Day
14h 41m
Waxing Gibbous, 99% of the Moon is Illuminated
May 25
Waxing Gibbous
May 31
Last Quarter
Jun 8
New
Jun 16
First Quarter
Jun 23
Full

Hourly Weather History & Observations

Time (MDT) Temp. Windchill Dew Point Humidity Pressure Visibility Wind Dir Wind Speed Gust Speed Precip Events Conditions
12:16 AM 42.8 °F - 24.8 °F 49% 30.17 in 10.0 mi Calm Calm - N/A   Clear
12:36 AM 39.2 °F - 24.8 °F 56% 30.17 in 10.0 mi Calm Calm - N/A   Clear
12:56 AM 39.2 °F - 24.8 °F 56% 30.17 in 10.0 mi Calm Calm - N/A   Clear
1:16 AM 39.2 °F - 26.6 °F 61% 30.16 in 10.0 mi Calm Calm - N/A   Clear
1:36 AM 37.4 °F - 26.6 °F 65% 30.17 in 10.0 mi Calm Calm - N/A   Clear
1:56 AM 35.6 °F - 23.0 °F 60% 30.16 in 10.0 mi Calm Calm - N/A   Clear
2:16 AM 35.6 °F - 24.8 °F 65% 30.16 in 10.0 mi Calm Calm - N/A   Clear
2:36 AM 35.6 °F - 23.0 °F 60% 30.16 in 10.0 mi Calm Calm - N/A   Clear
2:56 AM 33.8 °F - 24.8 °F 70% 30.16 in 10.0 mi Calm Calm - N/A   Clear
3:15 AM 35.6 °F - 24.8 °F 65% 30.16 in 10.0 mi Calm Calm - N/A   Clear
3:36 AM 33.8 °F - 24.8 °F 70% 30.16 in 10.0 mi Calm Calm - N/A   Clear
3:56 AM 33.8 °F - 26.6 °F 75% 30.16 in 10.0 mi Calm Calm - N/A   Clear
4:16 AM 33.8 °F - 26.6 °F 75% 30.17 in 10.0 mi Calm Calm - N/A   Clear
4:36 AM 33.8 °F - 26.6 °F 75% 30.17 in 10.0 mi Calm Calm - N/A   Clear
4:56 AM 32.0 °F - 24.8 °F 75% 30.17 in 10.0 mi Calm Calm - N/A   Clear
5:16 AM 33.8 °F - 26.6 °F 75% 30.17 in 10.0 mi Calm Calm - N/A   Clear
5:36 AM 32.0 °F - 23.0 °F 69% 30.19 in 10.0 mi Calm Calm - N/A   Clear
5:55 AM 32.0 °F 28.7 °F 26.6 °F 80% 30.20 in 10.0 mi WSW 3.5 mph - N/A   Clear
6:15 AM 32.0 °F - 26.6 °F 80% 30.21 in 10.0 mi Calm Calm - N/A   Clear
6:35 AM 32.0 °F - 28.4 °F 87% 30.22 in 10.0 mi Calm Calm - N/A   Clear
6:55 AM 35.6 °F - 28.4 °F 75% 30.22 in 10.0 mi Calm Calm - N/A   Clear
7:16 AM 35.6 °F - 28.4 °F 75% 30.22 in 10.0 mi Calm Calm - N/A   Clear
7:35 AM 37.4 °F - 28.4 °F 70% 30.22 in 10.0 mi Calm Calm - N/A   Clear
7:55 AM 41.0 °F - 26.6 °F 57% 30.21 in 10.0 mi Calm Calm - N/A   Clear
8:16 AM 44.6 °F - 28.4 °F 53% 30.20 in 10.0 mi Calm Calm - N/A   Clear
8:36 AM 50.0 °F - 28.4 °F 43% 30.20 in 10.0 mi Calm Calm - N/A   Clear
8:56 AM 50.0 °F - 26.6 °F 40% 30.20 in 10.0 mi Calm Calm - N/A   Clear
9:15 AM 53.6 °F - 28.4 °F 38% 30.19 in 10.0 mi Calm Calm - N/A   Clear
9:36 AM 55.4 °F - 24.8 °F 31% 30.18 in 10.0 mi Calm Calm - N/A   Clear
9:55 AM 59.0 °F - 23.0 °F 25% 30.17 in 10.0 mi Calm Calm - N/A   Clear
10:16 AM 60.8 °F - 23.0 °F 23% 30.17 in 10.0 mi ESE 3.5 mph - N/A   Clear
10:36 AM 64.4 °F - 21.2 °F 19% 30.16 in 10.0 mi West 4.6 mph - N/A   Clear
10:56 AM 66.2 °F - 19.4 °F 17% 30.16 in 10.0 mi SW 6.9 mph - N/A   Clear
11:15 AM 69.8 °F - 15.8 °F 13% 30.15 in 10.0 mi West 3.5 mph - N/A   Clear
11:36 AM 69.8 °F - 14.0 °F 12% 30.14 in 10.0 mi Calm Calm - N/A   Clear
11:56 AM 71.6 °F - 8.6 °F 9% 30.14 in 10.0 mi WSW 11.5 mph 19.6 mph N/A   Clear
12:16 PM 73.4 °F - 1.4 °F 6% 30.15 in 10.0 mi SW 21.9 mph - N/A   Clear
12:35 PM 71.6 °F - -0.4 °F 6% 30.15 in 10.0 mi SW 15.0 mph 28.8 mph N/A   Clear
12:56 PM 69.8 °F - 1.4 °F 7% 30.14 in 10.0 mi SSW 12.7 mph 19.6 mph N/A   Clear
1:16 PM 71.6 °F - 1.4 °F 6% 30.14 in 10.0 mi West 15.0 mph 19.6 mph N/A   Clear
1:35 PM 71.6 °F - 3.2 °F 7% 30.14 in 10.0 mi West 15.0 mph 21.9 mph N/A   Clear
1:56 PM 73.4 °F - 3.2 °F 6% 30.14 in 10.0 mi SW 13.8 mph 18.4 mph N/A   Clear
2:16 PM 73.4 °F - -0.4 °F 5% 30.13 in 10.0 mi WSW 6.9 mph 17.3 mph N/A   Clear
2:36 PM 75.2 °F - 1.4 °F 6% 30.13 in 10.0 mi SW 18.4 mph 26.5 mph N/A   Clear
2:56 PM 75.2 °F - -5.8 °F 4% 30.12 in 10.0 mi West 20.7 mph 29.9 mph N/A   Clear
3:16 PM 77.0 °F - -5.8 °F 4% 30.12 in 10.0 mi South 12.7 mph 21.9 mph N/A   Clear
3:35 PM 77.0 °F - -4.0 °F 4% 30.12 in 10.0 mi West 19.6 mph 25.3 mph N/A   Clear
3:56 PM 75.2 °F - -4.0 °F 4% 30.11 in 10.0 mi WSW 21.9 mph 28.8 mph N/A   Clear
4:16 PM 77.0 °F - -4.0 °F 4% 30.10 in 10.0 mi West 20.7 mph 28.8 mph N/A   Clear
4:36 PM 77.0 °F - -2.2 °F 4% 30.10 in 10.0 mi WSW 13.8 mph 25.3 mph N/A   Clear
4:56 PM 77.0 °F - -0.4 °F 5% 30.09 in 10.0 mi WSW 18.4 mph 24.2 mph N/A   Clear
5:15 PM 77.0 °F - -0.4 °F 5% 30.08 in 10.0 mi WSW 13.8 mph 18.4 mph N/A   Clear
5:36 PM 73.4 °F - -0.4 °F 5% 30.08 in 10.0 mi WSW 13.8 mph 25.3 mph N/A   Clear
5:56 PM 75.2 °F - 1.4 °F 6% 30.08 in 10.0 mi WSW 13.8 mph - N/A   Clear
6:16 PM 73.4 °F - -2.2 °F 5% 30.08 in 10.0 mi SW 13.8 mph 19.6 mph N/A   Clear
6:35 PM 73.4 °F - 1.4 °F 6% 30.07 in 10.0 mi WSW 11.5 mph 18.4 mph N/A   Clear
6:56 PM 69.8 °F - 1.4 °F 7% 30.08 in 10.0 mi WSW 12.7 mph 26.5 mph N/A   Clear
7:16 PM 69.8 °F - 8.6 °F 9% 30.08 in 10.0 mi WSW 11.5 mph - N/A   Clear
7:36 PM 69.8 °F - 12.2 °F 11% 30.09 in 10.0 mi West 9.2 mph - N/A   Clear
7:56 PM 69.8 °F - 10.4 °F 10% 30.09 in 10.0 mi WSW 8.1 mph - N/A   Clear
8:16 PM 64.4 °F - 10.4 °F 12% 30.10 in 10.0 mi SW 5.8 mph - N/A   Clear
8:36 PM 62.6 °F - 12.2 °F 14% 30.10 in 10.0 mi Calm Calm - N/A   Clear
8:56 PM 59.0 °F - 17.6 °F 20% 30.11 in 10.0 mi Calm Calm - N/A   Clear
9:16 PM 55.4 °F - 17.6 °F 23% 30.11 in 10.0 mi NNE 4.6 mph - N/A   Clear
9:36 PM 55.4 °F - 17.6 °F 23% 30.12 in 10.0 mi North 4.6 mph - N/A   Clear
9:56 PM 55.4 °F - 19.4 °F 25% 30.12 in 10.0 mi Calm Calm - N/A   Clear
10:16 PM 53.6 °F - 19.4 °F 26% 30.12 in 10.0 mi Calm Calm - N/A   Clear
10:36 PM 51.8 °F - 19.4 °F 28% 30.12 in 10.0 mi North 3.5 mph - N/A   Clear
10:56 PM 50.0 °F - 19.4 °F 30% 30.13 in 10.0 mi Calm Calm - N/A   Clear
11:16 PM 50.0 °F - 24.8 °F 37% 30.13 in 10.0 mi Calm Calm - N/A   Clear
11:36 PM 48.2 °F - 26.6 °F 43% 30.13 in 10.0 mi Calm Calm - N/A   Clear
11:56 PM 46.4 °F - 23.0 °F 40% 30.13 in 10.0 mi Calm Calm - N/A   Clear